Year,Month,Day,Hour,Minute,Value (Times are PST for windspeed in km/hr)
2017,05,23,00,00,0.00
2017,05,23,00,01,0.00
2017,05,23,00,02,0.00
2017,05,23,00,03,0.00
2017,05,23,00,04,0.00
2017,05,23,00,05,0.00
2017,05,23,00,06,0.00
2017,05,23,00,07,0.00
2017,05,23,00,08,0.00
2017,05,23,00,09,0.00
2017,05,23,00,10,0.00
2017,05,23,00,11,0.00
2017,05,23,00,12,0.00
2017,05,23,00,13,0.00
2017,05,23,00,14,0.00
2017,05,23,00,15,0.00
2017,05,23,00,16,0.00
2017,05,23,00,17,0.00
2017,05,23,00,18,0.00
2017,05,23,00,19,0.00
2017,05,23,00,20,0.00
2017,05,23,00,21,0.00
2017,05,23,00,22,0.70
2017,05,23,00,23,1.60
2017,05,23,00,24,2.80
2017,05,23,00,25,3.10
2017,05,23,00,26,2.80
2017,05,23,00,27,2.30
2017,05,23,00,28,2.00
2017,05,23,00,29,1.90
2017,05,23,00,30,2.50
2017,05,23,00,31,2.20
2017,05,23,00,32,2.30
2017,05,23,00,33,1.70
2017,05,23,00,34,2.80
2017,05,23,00,35,2.10
2017,05,23,00,36,2.40
2017,05,23,00,37,3.70
2017,05,23,00,38,3.70
2017,05,23,00,39,3.90
2017,05,23,00,40,3.40
2017,05,23,00,41,2.80
2017,05,23,00,42,3.00
2017,05,23,00,43,2.80
2017,05,23,00,44,2.30
2017,05,23,00,45,1.20
2017,05,23,00,46,0.10
2017,05,23,00,47,0.10
2017,05,23,00,48,0.20
2017,05,23,00,49,0.00
2017,05,23,00,50,0.20
2017,05,23,00,51,1.00
2017,05,23,00,52,1.70
2017,05,23,00,53,2.60
2017,05,23,00,54,2.90
2017,05,23,00,55,3.40
2017,05,23,00,56,3.90
2017,05,23,00,57,3.00
2017,05,23,00,58,3.00
2017,05,23,00,59,3.10
2017,05,23,01,00,2.70
2017,05,23,01,01,2.80
2017,05,23,01,02,2.30
2017,05,23,01,03,3.40
2017,05,23,01,04,3.60
2017,05,23,01,05,4.10
2017,05,23,01,06,4.40
2017,05,23,01,07,3.70
2017,05,23,01,08,4.20
2017,05,23,01,09,3.60
2017,05,23,01,10,2.70
2017,05,23,01,11,2.10
2017,05,23,01,12,2.80
2017,05,23,01,13,2.60
2017,05,23,01,14,3.90
2017,05,23,01,15,2.60
2017,05,23,01,16,1.70
2017,05,23,01,17,2.30
2017,05,23,01,18,3.00
2017,05,23,01,19,2.30
2017,05,23,01,20,3.10
2017,05,23,01,21,3.20
2017,05,23,01,22,2.90
2017,05,23,01,23,2.90
2017,05,23,01,24,2.80
2017,05,23,01,25,2.30
2017,05,23,01,26,2.30
2017,05,23,01,27,1.50
2017,05,23,01,28,0.40
2017,05,23,01,29,0.30
2017,05,23,01,30,1.20
2017,05,23,01,31,2.90
2017,05,23,01,32,3.20
2017,05,23,01,33,2.40
2017,05,23,01,34,1.80
2017,05,23,01,35,1.20
2017,05,23,01,36,0.60
2017,05,23,01,37,0.90
2017,05,23,01,38,1.40
2017,05,23,01,39,1.30
2017,05,23,01,40,1.00
2017,05,23,01,41,1.40
2017,05,23,01,42,0.80
2017,05,23,01,43,0.10
2017,05,23,01,44,0.00
2017,05,23,01,45,0.00
2017,05,23,01,46,0.00
2017,05,23,01,47,0.10
2017,05,23,01,48,0.60
2017,05,23,01,49,0.00
2017,05,23,01,50,0.00
2017,05,23,01,51,0.00
2017,05,23,01,52,0.00
2017,05,23,01,53,0.00
2017,05,23,01,54,0.70
2017,05,23,01,55,0.80
2017,05,23,01,56,1.20
2017,05,23,01,57,1.30
2017,05,23,01,58,1.60
2017,05,23,01,59,1.50
2017,05,23,02,00,1.30
2017,05,23,02,01,1.10
2017,05,23,02,02,0.10
2017,05,23,02,03,0.00
2017,05,23,02,04,0.10
2017,05,23,02,05,0.00
2017,05,23,02,06,0.00
2017,05,23,02,07,0.00
2017,05,23,02,08,0.00
2017,05,23,02,09,0.00
2017,05,23,02,10,0.00
2017,05,23,02,11,0.00
2017,05,23,02,12,0.00
2017,05,23,02,13,0.00
2017,05,23,02,14,0.00
2017,05,23,02,15,0.00
2017,05,23,02,16,0.00
2017,05,23,02,17,0.00
2017,05,23,02,18,0.70
2017,05,23,02,19,2.10
2017,05,23,02,20,2.80
2017,05,23,02,21,2.80
2017,05,23,02,22,4.30
2017,05,23,02,23,3.60
2017,05,23,02,24,3.00
2017,05,23,02,25,2.60
2017,05,23,02,26,2.60
2017,05,23,02,27,1.70
2017,05,23,02,28,0.20
2017,05,23,02,29,0.00
2017,05,23,02,30,0.00
2017,05,23,02,31,1.20
2017,05,23,02,32,3.20
2017,05,23,02,33,3.50
2017,05,23,02,34,3.40
2017,05,23,02,35,1.70
2017,05,23,02,36,1.90
2017,05,23,02,37,0.50
2017,05,23,02,38,0.60
2017,05,23,02,39,0.50
2017,05,23,02,40,0.50
2017,05,23,02,41,0.10
2017,05,23,02,42,0.00
2017,05,23,02,43,0.00
2017,05,23,02,44,0.00
2017,05,23,02,45,0.00
2017,05,23,02,46,0.00
2017,05,23,02,47,0.00
2017,05,23,02,48,0.00
2017,05,23,02,49,0.00
2017,05,23,02,50,0.00
2017,05,23,02,51,0.00
2017,05,23,02,52,0.00
2017,05,23,02,53,0.00
2017,05,23,02,54,0.10
2017,05,23,02,55,1.20
2017,05,23,02,56,1.30
2017,05,23,02,57,3.10
2017,05,23,02,58,3.30
2017,05,23,02,59,3.40
2017,05,23,03,00,3.20
2017,05,23,03,01,4.20
2017,05,23,03,02,4.50
2017,05,23,03,03,5.30
2017,05,23,03,04,5.90
2017,05,23,03,05,6.80
2017,05,23,03,06,6.50
2017,05,23,03,07,6.40
2017,05,23,03,08,6.60
2017,05,23,03,09,5.50
2017,05,23,03,10,4.90
2017,05,23,03,11,4.90
2017,05,23,03,12,4.20
2017,05,23,03,13,3.80
2017,05,23,03,14,3.50
2017,05,23,03,15,4.50
2017,05,23,03,16,3.60
2017,05,23,03,17,2.80
2017,05,23,03,18,2.80
2017,05,23,03,19,3.10
2017,05,23,03,20,4.00
2017,05,23,03,21,2.30
2017,05,23,03,22,2.80
2017,05,23,03,23,2.90
2017,05,23,03,24,2.40
2017,05,23,03,25,1.80
2017,05,23,03,26,1.10
2017,05,23,03,27,2.80
2017,05,23,03,28,4.00
2017,05,23,03,29,4.80
2017,05,23,03,30,4.90
2017,05,23,03,31,4.80
2017,05,23,03,32,4.30
2017,05,23,03,33,4.20
2017,05,23,03,34,4.40
2017,05,23,03,35,3.90
2017,05,23,03,36,3.90
2017,05,23,03,37,3.40
2017,05,23,03,38,3.90
2017,05,23,03,39,3.60
2017,05,23,03,40,3.50
2017,05,23,03,41,4.50
2017,05,23,03,42,4.60
2017,05,23,03,43,5.60
2017,05,23,03,44,5.90
2017,05,23,03,45,7.00
2017,05,23,03,46,5.40
2017,05,23,03,47,4.50
2017,05,23,03,48,4.50
2017,05,23,03,49,4.20
2017,05,23,03,50,4.20
2017,05,23,03,51,2.40
2017,05,23,03,52,4.00
2017,05,23,03,53,3.40
2017,05,23,03,54,2.70
2017,05,23,03,55,3.20
2017,05,23,03,56,2.90
2017,05,23,03,57,2.30
2017,05,23,03,58,1.80
2017,05,23,03,59,1.00
2017,05,23,04,00,1.80
2017,05,23,04,01,1.30
2017,05,23,04,02,1.50
2017,05,23,04,03,1.30
2017,05,23,04,04,2.20
2017,05,23,04,05,3.50
2017,05,23,04,06,3.10
2017,05,23,04,07,3.10
2017,05,23,04,08,2.30
2017,05,23,04,09,1.50
2017,05,23,04,10,1.30
2017,05,23,04,11,1.80
2017,05,23,04,12,1.70
2017,05,23,04,13,0.10
2017,05,23,04,14,0.10
2017,05,23,04,15,0.00
2017,05,23,04,16,0.00
2017,05,23,04,17,0.00
2017,05,23,04,18,0.00
2017,05,23,04,19,0.40
2017,05,23,04,20,0.40
2017,05,23,04,21,0.70
2017,05,23,04,22,0.80
2017,05,23,04,23,0.10
2017,05,23,04,24,0.00
2017,05,23,04,25,0.50
2017,05,23,04,26,2.40
2017,05,23,04,27,2.50
2017,05,23,04,28,2.30
2017,05,23,04,29,2.10
2017,05,23,04,30,1.50
2017,05,23,04,31,1.90
2017,05,23,04,32,2.00
2017,05,23,04,33,0.60
2017,05,23,04,34,0.00
2017,05,23,04,35,0.00
2017,05,23,04,36,0.00
2017,05,23,04,37,0.90
2017,05,23,04,38,1.80
2017,05,23,04,39,1.20
2017,05,23,04,40,0.10
2017,05,23,04,41,0.00
2017,05,23,04,42,0.00
2017,05,23,04,43,0.00
2017,05,23,04,44,0.00
2017,05,23,04,45,0.00
2017,05,23,04,46,0.80
2017,05,23,04,47,2.10
2017,05,23,04,48,3.00
2017,05,23,04,49,3.70
2017,05,23,04,50,3.10
2017,05,23,04,51,2.90
2017,05,23,04,52,3.90
2017,05,23,04,53,4.70
2017,05,23,04,54,3.50
2017,05,23,04,55,4.00
2017,05,23,04,56,2.50
2017,05,23,04,57,2.80
2017,05,23,04,58,1.40
2017,05,23,04,59,0.80
2017,05,23,05,00,2.80
2017,05,23,05,01,3.70
2017,05,23,05,02,3.90
2017,05,23,05,03,4.10
2017,05,23,05,04,5.60
2017,05,23,05,05,4.70
2017,05,23,05,06,3.20
2017,05,23,05,07,2.50
2017,05,23,05,08,2.90
2017,05,23,05,09,4.20
2017,05,23,05,10,3.40
2017,05,23,05,11,2.30
2017,05,23,05,12,0.90
2017,05,23,05,13,0.50
2017,05,23,05,14,1.10
2017,05,23,05,15,2.00
2017,05,23,05,16,1.80
2017,05,23,05,17,1.30
2017,05,23,05,18,1.30
2017,05,23,05,19,0.60
2017,05,23,05,20,0.00
2017,05,23,05,21,0.00
2017,05,23,05,22,0.00
2017,05,23,05,23,0.00
2017,05,23,05,24,0.00
2017,05,23,05,25,0.00
2017,05,23,05,26,0.00
2017,05,23,05,27,0.00
2017,05,23,05,28,0.00
2017,05,23,05,29,0.00
2017,05,23,05,30,0.20
2017,05,23,05,31,2.10
2017,05,23,05,32,2.50
2017,05,23,05,33,1.10
2017,05,23,05,34,0.70
2017,05,23,05,35,2.10
2017,05,23,05,36,2.80
2017,05,23,05,37,3.00
2017,05,23,05,38,1.40
2017,05,23,05,39,1.20
2017,05,23,05,40,2.60
2017,05,23,05,41,2.60
2017,05,23,05,42,0.60
2017,05,23,05,43,2.10
2017,05,23,05,44,2.50
2017,05,23,05,45,2.30
2017,05,23,05,46,2.90
2017,05,23,05,47,2.30
2017,05,23,05,48,1.80
2017,05,23,05,49,2.60
2017,05,23,05,50,2.70
2017,05,23,05,51,2.30
2017,05,23,05,52,2.40
2017,05,23,05,53,2.70
2017,05,23,05,54,2.30
2017,05,23,05,55,1.80
2017,05,23,05,56,1.00
2017,05,23,05,57,1.40
2017,05,23,05,58,2.40
2017,05,23,05,59,2.10
2017,05,23,06,00,1.00
2017,05,23,06,01,0.30
2017,05,23,06,02,0.70
2017,05,23,06,03,1.40
2017,05,23,06,04,2.00
2017,05,23,06,05,2.90
2017,05,23,06,06,1.80
2017,05,23,06,07,0.70
2017,05,23,06,08,0.20
2017,05,23,06,09,2.00
2017,05,23,06,10,2.40
2017,05,23,06,11,1.80
2017,05,23,06,12,0.50
2017,05,23,06,13,0.80
2017,05,23,06,14,0.30
2017,05,23,06,15,0.10
2017,05,23,06,16,0.20
2017,05,23,06,17,0.00
2017,05,23,06,18,0.00
2017,05,23,06,19,0.00
2017,05,23,06,20,0.00
2017,05,23,06,21,0.00
2017,05,23,06,22,0.10
2017,05,23,06,23,0.90
2017,05,23,06,24,0.60
2017,05,23,06,25,1.60
2017,05,23,06,26,1.80
2017,05,23,06,27,1.10
2017,05,23,06,28,0.40
2017,05,23,06,29,1.80
2017,05,23,06,30,2.80
2017,05,23,06,31,3.00
2017,05,23,06,32,1.20
2017,05,23,06,33,1.60
2017,05,23,06,34,2.70
2017,05,23,06,35,1.00
2017,05,23,06,36,0.00
2017,05,23,06,37,0.70
2017,05,23,06,38,0.90
2017,05,23,06,39,0.00
2017,05,23,06,40,0.00
2017,05,23,06,41,0.00
2017,05,23,06,42,0.00
2017,05,23,06,43,0.00
2017,05,23,06,44,0.00
2017,05,23,06,45,0.00
2017,05,23,06,46,0.00
2017,05,23,06,47,0.00
2017,05,23,06,48,0.00
2017,05,23,06,49,0.70
2017,05,23,06,50,1.90
2017,05,23,06,51,2.30
2017,05,23,06,52,1.80
2017,05,23,06,53,1.60
2017,05,23,06,54,0.40
2017,05,23,06,55,2.10
2017,05,23,06,56,1.90
2017,05,23,06,57,2.50
2017,05,23,06,58,2.80
2017,05,23,06,59,2.30
2017,05,23,07,00,1.30
2017,05,23,07,01,3.00
2017,05,23,07,02,0.90
2017,05,23,07,03,0.00
2017,05,23,07,04,0.90
2017,05,23,07,05,0.20
2017,05,23,07,06,0.00
2017,05,23,07,07,0.10
2017,05,23,07,08,0.10
2017,05,23,07,09,0.00
2017,05,23,07,10,0.20
2017,05,23,07,11,1.50
2017,05,23,07,12,3.90
2017,05,23,07,13,3.20
2017,05,23,07,14,1.00
2017,05,23,07,15,0.20
2017,05,23,07,16,0.00
2017,05,23,07,17,0.20
2017,05,23,07,18,0.40
2017,05,23,07,19,0.00
2017,05,23,07,20,0.20
2017,05,23,07,21,1.80
2017,05,23,07,22,0.40
2017,05,23,07,23,0.30
2017,05,23,07,24,1.20
2017,05,23,07,25,0.50
2017,05,23,07,26,0.30
2017,05,23,07,27,0.20
2017,05,23,07,28,3.20
2017,05,23,07,29,0.40
2017,05,23,07,30,1.30
2017,05,23,07,31,1.10
2017,05,23,07,32,0.10
2017,05,23,07,33,1.30
2017,05,23,07,34,1.70
2017,05,23,07,35,2.10
2017,05,23,07,36,0.40
2017,05,23,07,37,0.00
2017,05,23,07,38,0.40
2017,05,23,07,39,0.40
2017,05,23,07,40,0.00
2017,05,23,07,41,0.00
2017,05,23,07,42,0.00
2017,05,23,07,43,0.00
2017,05,23,07,44,0.00
2017,05,23,07,45,0.00
2017,05,23,07,46,0.00
2017,05,23,07,47,0.00
2017,05,23,07,48,0.70
2017,05,23,07,49,1.40
2017,05,23,07,50,1.70
2017,05,23,07,51,0.40
2017,05,23,07,52,0.40
2017,05,23,07,53,2.50
2017,05,23,07,54,2.40
2017,05,23,07,55,0.50
2017,05,23,07,56,0.20
2017,05,23,07,57,1.30
2017,05,23,07,58,3.40
2017,05,23,07,59,2.40
2017,05,23,08,00,1.60
2017,05,23,08,01,1.70
2017,05,23,08,02,1.80
2017,05,23,08,03,2.60
2017,05,23,08,04,4.40
2017,05,23,08,05,2.40
2017,05,23,08,06,0.70
2017,05,23,08,07,2.10
2017,05,23,08,08,2.10
2017,05,23,08,09,3.80
2017,05,23,08,10,3.10
2017,05,23,08,11,5.70
2017,05,23,08,12,3.30
2017,05,23,08,13,2.60
2017,05,23,08,14,1.90
2017,05,23,08,15,6.30
2017,05,23,08,16,4.50
2017,05,23,08,17,4.20
2017,05,23,08,18,5.20
2017,05,23,08,19,1.40
2017,05,23,08,20,4.40
2017,05,23,08,21,4.20
2017,05,23,08,22,7.30
2017,05,23,08,23,7.60
2017,05,23,08,24,5.60
2017,05,23,08,25,3.10
2017,05,23,08,26,4.40
2017,05,23,08,27,2.30
2017,05,23,08,28,0.50
2017,05,23,08,29,2.80
2017,05,23,08,30,4.40
2017,05,23,08,31,3.60
2017,05,23,08,32,2.70
2017,05,23,08,33,4.40
2017,05,23,08,34,4.40
2017,05,23,08,35,3.70
2017,05,23,08,36,3.80
2017,05,23,08,37,4.30
2017,05,23,08,38,4.10
2017,05,23,08,39,4.20
2017,05,23,08,40,4.10
2017,05,23,08,41,5.20
2017,05,23,08,42,6.10
2017,05,23,08,43,5.10
2017,05,23,08,44,6.30
2017,05,23,08,45,3.70
2017,05,23,08,46,4.20
2017,05,23,08,47,6.10
2017,05,23,08,48,5.90
2017,05,23,08,49,2.50
2017,05,23,08,50,3.50
2017,05,23,08,51,4.80
2017,05,23,08,52,3.90
2017,05,23,08,53,4.80
2017,05,23,08,54,3.60
2017,05,23,08,55,2.90
2017,05,23,08,56,2.90
2017,05,23,08,57,2.50
2017,05,23,08,58,5.30
2017,05,23,08,59,6.40
2017,05,23,09,00,5.70
2017,05,23,09,01,5.50
2017,05,23,09,02,4.70
2017,05,23,09,03,9.00
2017,05,23,09,04,8.30
2017,05,23,09,05,6.70
2017,05,23,09,06,5.10
2017,05,23,09,07,7.40
2017,05,23,09,08,8.40
2017,05,23,09,09,6.40
2017,05,23,09,10,4.30
2017,05,23,09,11,6.80
2017,05,23,09,12,7.70
2017,05,23,09,13,5.90
2017,05,23,09,14,9.00
2017,05,23,09,15,6.70
2017,05,23,09,16,8.70
2017,05,23,09,17,10.50
2017,05,23,09,18,10.00
2017,05,23,09,19,8.80
2017,05,23,09,20,9.80
2017,05,23,09,21,12.00
2017,05,23,09,22,10.40
2017,05,23,09,23,9.20
2017,05,23,09,24,8.50
2017,05,23,09,25,9.80
2017,05,23,09,26,8.70
2017,05,23,09,27,8.90
2017,05,23,09,28,6.70
2017,05,23,09,29,9.00
2017,05,23,09,30,11.30
2017,05,23,09,31,8.40
2017,05,23,09,32,8.40
2017,05,23,09,33,10.00
2017,05,23,09,34,9.60
2017,05,23,09,35,8.60
2017,05,23,09,36,8.70
2017,05,23,09,37,7.10
2017,05,23,09,38,6.80
2017,05,23,09,39,6.10
2017,05,23,09,40,6.70
2017,05,23,09,41,6.10
2017,05,23,09,42,8.30
2017,05,23,09,43,5.40
2017,05,23,09,44,7.10
2017,05,23,09,45,8.60
2017,05,23,09,46,8.50
2017,05,23,09,47,6.60
2017,05,23,09,48,2.20
2017,05,23,09,49,7.00
2017,05,23,09,50,10.80
2017,05,23,09,51,12.70
2017,05,23,09,52,12.00
2017,05,23,09,53,10.60
2017,05,23,09,54,9.70
2017,05,23,09,55,12.00
2017,05,23,09,56,12.10
2017,05,23,09,57,7.60
2017,05,23,09,58,6.10
2017,05,23,09,59,8.60
2017,05,23,10,00,7.80
2017,05,23,10,01,11.30
2017,05,23,10,02,11.60
2017,05,23,10,03,10.80
2017,05,23,10,04,8.70
2017,05,23,10,05,8.90
2017,05,23,10,06,13.30
2017,05,23,10,07,16.20
2017,05,23,10,08,15.10
2017,05,23,10,09,10.50
2017,05,23,10,10,6.70
2017,05,23,10,11,10.70
2017,05,23,10,12,6.70
2017,05,23,10,13,7.80
2017,05,23,10,14,11.80
2017,05,23,10,15,9.20
2017,05,23,10,16,8.60
2017,05,23,10,17,5.70
2017,05,23,10,18,9.40
2017,05,23,10,19,8.10
2017,05,23,10,20,7.50
2017,05,23,10,21,6.70
2017,05,23,10,22,7.00
2017,05,23,10,23,4.40
2017,05,23,10,24,4.80
2017,05,23,10,25,9.40
2017,05,23,10,26,12.70
2017,05,23,10,27,9.00
2017,05,23,10,28,10.90
2017,05,23,10,29,13.80
2017,05,23,10,30,10.20
2017,05,23,10,31,10.00
2017,05,23,10,32,12.40
2017,05,23,10,33,9.90
2017,05,23,10,34,9.40
2017,05,23,10,35,10.80
2017,05,23,10,36,10.30
2017,05,23,10,37,11.60
2017,05,23,10,38,6.50
2017,05,23,10,39,13.00
2017,05,23,10,40,9.90
2017,05,23,10,41,10.50
2017,05,23,10,42,9.20
2017,05,23,10,43,11.20
2017,05,23,10,44,12.30
2017,05,23,10,45,12.90
2017,05,23,10,46,12.80
2017,05,23,10,47,12.70
2017,05,23,10,48,19.20
2017,05,23,10,49,11.00
2017,05,23,10,50,12.70
2017,05,23,10,51,12.60
2017,05,23,10,52,11.50
2017,05,23,10,53,11.10
2017,05,23,10,54,10.30
2017,05,23,10,55,12.90
2017,05,23,10,56,12.40
2017,05,23,10,57,10.20
2017,05,23,10,58,11.90
2017,05,23,10,59,11.70
2017,05,23,11,00,12.20
2017,05,23,11,01,12.10
2017,05,23,11,02,14.60
2017,05,23,11,03,13.20
2017,05,23,11,04,15.60
2017,05,23,11,05,15.10
2017,05,23,11,06,16.00
2017,05,23,11,07,13.50
2017,05,23,11,08,17.60
2017,05,23,11,09,15.00
2017,05,23,11,10,15.90
2017,05,23,11,11,15.20
2017,05,23,11,12,14.30
2017,05,23,11,13,17.50
2017,05,23,11,14,14.90
2017,05,23,11,15,16.70
2017,05,23,11,16,18.80
2017,05,23,11,17,15.10
2017,05,23,11,18,16.30
2017,05,23,11,19,14.30
2017,05,23,11,20,11.90
2017,05,23,11,21,12.40
2017,05,23,11,22,17.30
2017,05,23,11,23,21.50
2017,05,23,11,24,14.40
2017,05,23,11,25,10.70
2017,05,23,11,26,15.80
2017,05,23,11,27,25.00
2017,05,23,11,28,16.10
2017,05,23,11,29,21.60
2017,05,23,11,30,16.20
2017,05,23,11,31,9.90
2017,05,23,11,32,9.10
2017,05,23,11,33,10.40
2017,05,23,11,34,11.80
2017,05,23,11,35,9.30
2017,05,23,11,36,6.30
2017,05,23,11,37,9.50
2017,05,23,11,38,11.40
2017,05,23,11,39,9.30
2017,05,23,11,40,10.10
2017,05,23,11,41,14.80
2017,05,23,11,42,16.80
2017,05,23,11,43,12.80
2017,05,23,11,44,13.10
2017,05,23,11,45,11.00
2017,05,23,11,46,11.60
2017,05,23,11,47,8.90
2017,05,23,11,48,10.00
2017,05,23,11,49,11.10
2017,05,23,11,50,14.90
2017,05,23,11,51,14.20
2017,05,23,11,52,14.80
2017,05,23,11,53,13.30
2017,05,23,11,54,9.70
2017,05,23,11,55,7.50
2017,05,23,11,56,13.50
2017,05,23,11,57,12.20
2017,05,23,11,58,9.40
2017,05,23,11,59,9.60
2017,05,23,12,00,12.10
2017,05,23,12,01,9.90
2017,05,23,12,02,9.60
2017,05,23,12,03,13.80
2017,05,23,12,04,15.10
2017,05,23,12,05,11.40
2017,05,23,12,06,15.10
2017,05,23,12,07,14.60
2017,05,23,12,08,16.10
2017,05,23,12,09,9.70
2017,05,23,12,10,20.80
2017,05,23,12,11,21.90
2017,05,23,12,12,14.70
2017,05,23,12,13,10.80
2017,05,23,12,14,12.70
2017,05,23,12,15,10.70
2017,05,23,12,16,18.90
2017,05,23,12,17,14.20
2017,05,23,12,18,23.30
2017,05,23,12,19,21.00
2017,05,23,12,20,19.50
2017,05,23,12,21,16.50
2017,05,23,12,22,16.70
2017,05,23,12,23,17.50
2017,05,23,12,24,21.80
2017,05,23,12,25,17.30
2017,05,23,12,26,18.10
2017,05,23,12,27,19.70
2017,05,23,12,28,15.40
2017,05,23,12,29,21.00
2017,05,23,12,30,15.90
2017,05,23,12,31,13.90
2017,05,23,12,32,20.00
2017,05,23,12,33,17.00
2017,05,23,12,34,18.90
2017,05,23,12,35,20.00
2017,05,23,12,36,17.00
2017,05,23,12,37,24.10
2017,05,23,12,38,20.10
2017,05,23,12,39,19.90
2017,05,23,12,40,22.40
2017,05,23,12,41,16.50
2017,05,23,12,42,19.20
2017,05,23,12,43,14.70
2017,05,23,12,44,10.00
2017,05,23,12,45,16.80
2017,05,23,12,46,16.10
2017,05,23,12,47,15.90
2017,05,23,12,48,15.90
2017,05,23,12,49,19.60
2017,05,23,12,50,19.20
2017,05,23,12,51,14.70
2017,05,23,12,52,20.10
2017,05,23,12,53,22.60
2017,05,23,12,54,17.80
2017,05,23,12,55,28.20
2017,05,23,12,56,25.20
2017,05,23,12,57,26.40
2017,05,23,12,58,26.60
2017,05,23,12,59,20.80
2017,05,23,13,00,20.80
2017,05,23,13,01,26.40
2017,05,23,13,02,32.00
2017,05,23,13,03,20.80
2017,05,23,13,04,27.60
2017,05,23,13,05,27.90
2017,05,23,13,06,21.10
2017,05,23,13,07,25.50
2017,05,23,13,08,21.00
2017,05,23,13,09,23.20
2017,05,23,13,10,32.00
2017,05,23,13,11,27.10
2017,05,23,13,12,30.80
2017,05,23,13,13,29.30
2017,05,23,13,14,30.80
2017,05,23,13,15,26.10
2017,05,23,13,16,27.40
2017,05,23,13,17,29.50
2017,05,23,13,18,25.00
2017,05,23,13,19,23.80
2017,05,23,13,20,28.20
2017,05,23,13,21,19.50
2017,05,23,13,22,26.80
2017,05,23,13,23,25.50
2017,05,23,13,24,19.50
2017,05,23,13,25,24.40
2017,05,23,13,26,27.40
2017,05,23,13,27,28.00
2017,05,23,13,28,28.50
2017,05,23,13,29,31.70
2017,05,23,13,30,25.80
2017,05,23,13,31,27.70
2017,05,23,13,32,26.80
2017,05,23,13,33,34.30
2017,05,23,13,34,35.80
2017,05,23,13,35,29.50
2017,05,23,13,36,27.40
2017,05,23,13,37,24.70
2017,05,23,13,38,34.60
2017,05,23,13,39,38.80
2017,05,23,13,40,33.60
2017,05,23,13,41,34.20
2017,05,23,13,42,24.90
2017,05,23,13,43,33.40
2017,05,23,13,44,26.80
2017,05,23,13,45,26.10
2017,05,23,13,46,31.30
2017,05,23,13,47,33.70
2017,05,23,13,48,32.60
2017,05,23,13,49,28.60
2017,05,23,13,50,38.20
2017,05,23,13,51,32.90
2017,05,23,13,52,33.30
2017,05,23,13,53,40.60
2017,05,23,13,54,28.50
2017,05,23,13,55,27.10
2017,05,23,13,56,34.00
2017,05,23,13,57,31.20
2017,05,23,13,58,34.00
2017,05,23,13,59,28.50
2017,05,23,14,00,27.40
2017,05,23,14,01,20.90
2017,05,23,14,02,29.60
2017,05,23,14,03,25.10
2017,05,23,14,04,32.40
2017,05,23,14,05,26.70
2017,05,23,14,06,27.10
2017,05,23,14,07,31.10
2017,05,23,14,08,35.20
2017,05,23,14,09,28.50
2017,05,23,14,10,22.10
2017,05,23,14,11,30.10
2017,05,23,14,12,35.00
2017,05,23,14,13,25.90
2017,05,23,14,14,32.60
2017,05,23,14,15,27.30
2017,05,23,14,16,28.60
2017,05,23,14,17,27.10
2017,05,23,14,18,22.00
2017,05,23,14,19,21.90
2017,05,23,14,20,28.20
2017,05,23,14,21,32.80
2017,05,23,14,22,22.90
2017,05,23,14,23,29.90
2017,05,23,14,24,32.80
2017,05,23,14,25,24.60
2017,05,23,14,26,27.90
2017,05,23,14,27,23.00
2017,05,23,14,28,22.40
2017,05,23,14,29,26.00
2017,05,23,14,30,26.80
2017,05,23,14,31,23.20
2017,05,23,14,32,18.40
2017,05,23,14,33,22.80
2017,05,23,14,34,24.90
2017,05,23,14,35,31.10
2017,05,23,14,36,26.90
2017,05,23,14,37,25.00
2017,05,23,14,38,24.70
2017,05,23,14,39,28.00
2017,05,23,14,40,32.60
2017,05,23,14,41,29.00
2017,05,23,14,42,35.20
2017,05,23,14,43,31.30
2017,05,23,14,44,27.60
2017,05,23,14,45,30.20
2017,05,23,14,46,25.90
2017,05,23,14,47,23.90
2017,05,23,14,48,27.70
2017,05,23,14,49,24.40
2017,05,23,14,50,24.40
2017,05,23,14,51,17.40
2017,05,23,14,52,23.90
2017,05,23,14,53,24.40
2017,05,23,14,54,26.20
2017,05,23,14,55,30.40
2017,05,23,14,56,24.50
2017,05,23,14,57,31.20
2017,05,23,14,58,20.70
2017,05,23,14,59,25.50
2017,05,23,15,00,31.30
2017,05,23,15,01,33.30
2017,05,23,15,02,32.30
2017,05,23,15,03,31.10
2017,05,23,15,04,29.40
2017,05,23,15,05,26.00
2017,05,23,15,06,24.50
2017,05,23,15,07,27.90
2017,05,23,15,08,24.40
2017,05,23,15,09,24.90
2017,05,23,15,10,27.50
2017,05,23,15,11,28.20
2017,05,23,15,12,25.40
2017,05,23,15,13,23.60
2017,05,23,15,14,23.30
2017,05,23,15,15,30.00
2017,05,23,15,16,30.30
2017,05,23,15,17,30.70
2017,05,23,15,18,24.90
2017,05,23,15,19,24.90
2017,05,23,15,20,30.00
2017,05,23,15,21,29.80
2017,05,23,15,22,28.80
2017,05,23,15,23,21.90
2017,05,23,15,24,29.10
2017,05,23,15,25,25.80
2017,05,23,15,26,28.80
2017,05,23,15,27,22.80
2017,05,23,15,28,27.40
2017,05,23,15,29,31.70
2017,05,23,15,30,28.30
2017,05,23,15,31,28.60
2017,05,23,15,32,23.30
2017,05,23,15,33,24.50
2017,05,23,15,34,27.00
2017,05,23,15,35,24.80
2017,05,23,15,36,27.70
2017,05,23,15,37,22.40
2017,05,23,15,38,21.70
2017,05,23,15,39,21.10
2017,05,23,15,40,23.30
2017,05,23,15,41,25.00
2017,05,23,15,42,28.30
2017,05,23,15,43,28.00
2017,05,23,15,44,26.40
2017,05,23,15,45,28.10
2017,05,23,15,46,26.20
2017,05,23,15,47,22.80
2017,05,23,15,48,22.70
2017,05,23,15,49,21.70
2017,05,23,15,50,20.90
2017,05,23,15,51,26.40
2017,05,23,15,52,29.60
2017,05,23,15,53,26.60
2017,05,23,15,54,26.00
2017,05,23,15,55,30.40
2017,05,23,15,56,31.10
2017,05,23,15,57,24.50
2017,05,23,15,58,21.80
2017,05,23,15,59,25.90
2017,05,23,16,00,24.20
2017,05,23,16,01,29.20
2017,05,23,16,02,27.20
2017,05,23,16,03,29.30
2017,05,23,16,04,32.40
2017,05,23,16,05,28.90
2017,05,23,16,06,28.70
2017,05,23,16,07,23.30
2017,05,23,16,08,24.20
2017,05,23,16,09,27.40
2017,05,23,16,10,23.80
2017,05,23,16,11,28.50
2017,05,23,16,12,24.80
2017,05,23,16,13,26.90
2017,05,23,16,14,32.00
2017,05,23,16,15,19.80
2017,05,23,16,16,33.30
2017,05,23,16,17,29.10
2017,05,23,16,18,30.00
2017,05,23,16,19,29.30
2017,05,23,16,20,14.70
2017,05,23,16,21,17.50
2017,05,23,16,22,22.60
2017,05,23,16,23,23.60
2017,05,23,16,24,23.90
2017,05,23,16,25,23.10
2017,05,23,16,26,18.90
2017,05,23,16,27,19.80
2017,05,23,16,28,27.60
2017,05,23,16,29,29.40
2017,05,23,16,30,23.60
2017,05,23,16,31,18.30
2017,05,23,16,32,28.30
2017,05,23,16,33,30.30
2017,05,23,16,34,25.30
2017,05,23,16,35,16.80
2017,05,23,16,36,17.30
2017,05,23,16,37,17.10
2017,05,23,16,38,15.10
2017,05,23,16,39,23.40
2017,05,23,16,40,22.60
2017,05,23,16,41,33.60
2017,05,23,16,42,29.10
2017,05,23,16,43,29.40
2017,05,23,16,44,32.00
2017,05,23,16,45,30.10
2017,05,23,16,46,26.40
2017,05,23,16,47,23.70
2017,05,23,16,48,26.40
2017,05,23,16,49,25.40
2017,05,23,16,50,29.50
2017,05,23,16,51,25.30
2017,05,23,16,52,24.60
2017,05,23,16,53,32.00
2017,05,23,16,54,25.20
2017,05,23,16,55,33.60
2017,05,23,16,56,32.10
2017,05,23,16,57,29.90
2017,05,23,16,58,18.70
2017,05,23,16,59,20.80
2017,05,23,17,00,23.00
2017,05,23,17,01,37.50
2017,05,23,17,02,29.60
2017,05,23,17,03,23.30
2017,05,23,17,04,20.00
2017,05,23,17,05,21.80
2017,05,23,17,06,24.20
2017,05,23,17,07,30.80
2017,05,23,17,08,34.20
2017,05,23,17,09,24.40
2017,05,23,17,10,18.30
2017,05,23,17,11,26.80
2017,05,23,17,12,29.80
2017,05,23,17,13,33.40
2017,05,23,17,14,33.40
2017,05,23,17,15,33.10
2017,05,23,17,16,29.50
2017,05,23,17,17,28.70
2017,05,23,17,18,18.40
2017,05,23,17,19,27.40
2017,05,23,17,20,32.80
2017,05,23,17,21,32.20
2017,05,23,17,22,22.60
2017,05,23,17,23,25.60
2017,05,23,17,24,22.90
2017,05,23,17,25,20.50
2017,05,23,17,26,20.90
2017,05,23,17,27,20.90
2017,05,23,17,28,20.90
2017,05,23,17,29,25.90
2017,05,23,17,30,25.40
2017,05,23,17,31,24.40
2017,05,23,17,32,26.00
2017,05,23,17,33,22.70
2017,05,23,17,34,35.20
2017,05,23,17,35,29.90
2017,05,23,17,36,24.40
2017,05,23,17,37,19.20
2017,05,23,17,38,16.40
2017,05,23,17,39,31.00
2017,05,23,17,40,31.90
2017,05,23,17,41,27.40
2017,05,23,17,42,19.20
2017,05,23,17,43,25.30
2017,05,23,17,44,19.20
2017,05,23,17,45,19.80
2017,05,23,17,46,21.80